,,,PA_Meas_PMT16A,,PR_Meas_QMR101_102,,RH_Meas_QMH101,,SR_Meas_QMS101,,TA_Meas_QMH101,,GenWind,,GenWind,
date,time,status,PA,status,PR,status,RH,status,SR,status,TA,status,DirAvg,status,SpdAvg,
2011-01-26, 00:00:04,VALID,1000.12,VALID,0,VALID,93.5315,VALID,0,VALID,23.0769,VALID,313,VALID,0.562891,
2011-01-26, 00:01:04,VALID,1000.08,VALID,0,VALID,93.5315,VALID,0,VALID,23.0378,VALID,313,VALID,0.49375,
2011-01-26, 00:02:04,VALID,1000.03,VALID,0,VALID,93.5468,VALID,0,VALID,22.9988,VALID,313,VALID,0.272656,
2011-01-26, 00:03:04,VALID,1000.01,VALID,0,VALID,93.5544,VALID,0,VALID,22.9598,VALID,313,VALID,0.0640625,
2011-01-26, 00:04:04,VALID,1000.02,VALID,0,VALID,93.5544,VALID,0,VALID,22.9403,VALID,313,VALID,0,
2011-01-26, 00:05:04,VALID,999.973,VALID,0,VALID,93.5391,VALID,0,VALID,22.942,VALID,313,VALID,0,
2011-01-26, 00:06:04,VALID,999.975,VALID,0,VALID,93.5468,VALID,0,VALID,22.9208,VALID,313,VALID,0,
2011-01-26, 00:07:04,VALID,999.972,VALID,0,VALID,93.562,VALID,0,VALID,22.8623,VALID,313,VALID,0,
2011-01-26, 00:08:04,VALID,1000,VALID,0,VALID,93.562,VALID,0,VALID,22.8427,VALID,313,VALID,0,
2011-01-26, 00:09:04,VALID,999.977,VALID,0,VALID,93.562,VALID,0,VALID,22.8623,VALID,313,VALID,0.0992187,
2011-01-26, 00:10:04,VALID,999.991,VALID,0,VALID,93.5773,VALID,0,VALID,22.8232,VALID,313,VALID,0.251953,
2011-01-26, 00:11:04,VALID,999.965,VALID,0,VALID,93.5544,VALID,0,VALID,22.864,VALID,313,VALID,0.462891,
2011-01-26, 00:12:04,VALID,999.942,VALID,0,VALID,93.5773,VALID,0,VALID,22.8623,VALID,313,VALID,0.664844,
2011-01-26, 00:13:04,VALID,999.938,VALID,0,VALID,93.5544,VALID,0,VALID,22.8818,VALID,313,VALID,0.5875,
2011-01-26, 00:14:04,VALID,999.937,VALID,0,VALID,93.5468,VALID,0,VALID,22.9208,VALID,313,VALID,0.530078,
2011-01-26, 00:15:04,VALID,999.869,VALID,0,VALID,93.5468,VALID,0,VALID,22.9403,VALID,95,VALID,0.752344,
2011-01-26, 00:16:04,VALID,999.923,VALID,0,VALID,93.5773,VALID,0,VALID,22.9598,VALID,95,VALID,1.02773,
2011-01-26, 00:17:04,VALID,999.924,VALID,0,VALID,93.5544,VALID,0,VALID,23.0183,VALID,95,VALID,0.966797,
2011-01-26, 00:18:04,VALID,999.959,VALID,0,VALID,93.5391,VALID,0,VALID,22.9988,VALID,93,VALID,1.66406,
2011-01-26, 00:19:04,VALID,999.941,VALID,0,VALID,93.5468,VALID,0,VALID,23.0183,VALID,87,VALID,1.12422,
2011-01-26, 00:20:04,VALID,999.89,VALID,0,VALID,93.5468,VALID,0,VALID,23.0183,VALID,175,VALID,1.29883,
2011-01-26, 00:21:04,VALID,999.885,VALID,0,VALID,93.5239,VALID,0,VALID,23.0378,VALID,158,VALID,1.23008,
2011-01-26, 00:22:04,VALID,999.882,VALID,0,VALID,93.5315,VALID,0,VALID,23.0573,VALID,97,VALID,0.864844,
2011-01-26, 00:23:04,VALID,999.875,VALID,0,VALID,93.5468,VALID,0,VALID,23.0378,VALID,14,VALID,1.47539,
2011-01-26, 00:24:04,VALID,999.875,VALID,0,VALID,93.5391,VALID,0,VALID,22.9988,VALID,13,VALID,1.13672,
2011-01-26, 00:25:04,VALID,999.822,VALID,0,VALID,93.5544,VALID,0,VALID,22.9811,VALID,34,VALID,1.04414,
2011-01-26, 00:26:04,VALID,999.8,VALID,0,VALID,93.562,VALID,0,VALID,22.9403,VALID,36,VALID,0.846094,
2011-01-26, 00:27:04,VALID,999.812,VALID,0,VALID,93.5468,VALID,0,VALID,22.9208,VALID,41,VALID,0.467187,
2011-01-26, 00:28:04,VALID,999.761,VALID,0,VALID,93.5468,VALID,0,VALID,22.942,VALID,40,VALID,0.408984,
2011-01-26, 00:29:04,VALID,999.727,VALID,0,VALID,93.562,VALID,0,VALID,22.9208,VALID,40,VALID,0.400781,
2011-01-26, 00:30:04,VALID,999.69,VALID,0,VALID,93.5544,VALID,0,VALID,22.9208,VALID,358,VALID,0.70625,
2011-01-26, 00:31:04,VALID,999.671,VALID,0,VALID,93.562,VALID,0,VALID,22.9208,VALID,329,VALID,0.605469,
2011-01-26, 00:32:04,VALID,999.651,VALID,0,VALID,93.5544,VALID,0,VALID,22.9013,VALID,301,VALID,0.503906,
2011-01-26, 00:33:04,VALID,999.609,VALID,0,VALID,93.5849,VALID,0,VALID,22.8818,VALID,301,VALID,0.315625,
2011-01-26, 00:34:04,VALID,999.606,VALID,0,VALID,93.562,VALID,0,VALID,22.8623,VALID,301,VALID,0.644141,
2011-01-26, 00:35:04,VALID,999.562,VALID,0,VALID,93.5773,VALID,0,VALID,22.8232,VALID,301,VALID,0.800391,
2011-01-26, 00:36:04,VALID,999.559,VALID,0,VALID,93.5697,VALID,0,VALID,22.8232,VALID,301,VALID,0.628125,
2011-01-26, 00:37:04,VALID,999.536,VALID,0,VALID,93.5773,VALID,0,VALID,22.8232,VALID,301,VALID,0.663672,
2011-01-26, 00:38:04,VALID,999.534,VALID,0,VALID,93.5849,VALID,0,VALID,22.8037,VALID,301,VALID,0.554297,
2011-01-26, 00:39:04,VALID,999.539,VALID,0,VALID,93.5773,VALID,0,VALID,22.8232,VALID,301,VALID,0.413672,
2011-01-26, 00:40:04,VALID,999.535,VALID,0,VALID,93.5773,VALID,0,VALID,22.8427,VALID,301,VALID,0.373828,
2011-01-26, 00:41:04,VALID,999.558,VALID,0,VALID,93.5926,VALID,0,VALID,22.864,VALID,301,VALID,0.553516,
2011-01-26, 00:42:04,VALID,999.587,VALID,0,VALID,93.5697,VALID,0,VALID,22.9013,VALID,254,VALID,0.663672,
2011-01-26, 00:43:04,VALID,999.594,VALID,0,VALID,93.5926,VALID,0,VALID,22.9013,VALID,254,VALID,0.453125,
2011-01-26, 00:44:04,VALID,999.617,VALID,0,VALID,93.5697,VALID,0,VALID,22.9013,VALID,254,VALID,0.393359,
2011-01-26, 00:45:04,VALID,999.596,VALID,0,VALID,93.5773,VALID,0,VALID,22.9013,VALID,273,VALID,0.584766,
2011-01-26, 00:46:04,VALID,999.594,VALID,0,VALID,93.5697,VALID,0,VALID,22.9208,VALID,273,VALID,0.630859,
2011-01-26, 00:47:04,VALID,999.614,VALID,0,VALID,93.5544,VALID,0,VALID,22.9208,VALID,273,VALID,0.546094,
2011-01-26, 00:48:04,VALID,999.602,VALID,0,VALID,93.5544,VALID,0,VALID,22.9403,VALID,243,VALID,0.746094,
2011-01-26, 00:49:04,VALID,999.603,VALID,0,VALID,93.5773,VALID,0,VALID,22.9793,VALID,218,VALID,0.990234,
2011-01-26, 00:50:04,VALID,999.613,VALID,0,VALID,93.5849,VALID,0,VALID,22.9988,VALID,214,VALID,0.877344,
2011-01-26, 00:51:04,VALID,999.598,VALID,0,VALID,93.5391,VALID,0,VALID,23.0378,VALID,200,VALID,0.926562,
2011-01-26, 00:52:04,VALID,999.553,VALID,0,VALID,93.5391,VALID,0,VALID,23.0769,VALID,201,VALID,0.769531,
2011-01-26, 00:53:04,VALID,999.518,VALID,0,VALID,93.5468,VALID,0,VALID,23.0964,VALID,223,VALID,0.639063,
2011-01-26, 00:54:04,VALID,999.496,VALID,0,VALID,93.5315,VALID,0,VALID,23.1354,VALID,233,VALID,0.632813,
2011-01-26, 00:55:04,VALID,999.527,VALID,0,VALID,93.5315,VALID,0,VALID,23.1354,VALID,232,VALID,0.251953,
2011-01-26, 00:56:04,VALID,999.48,VALID,0,VALID,93.5315,VALID,0,VALID,23.1549,VALID,233,VALID,0.561328,
2011-01-26, 00:57:04,VALID,999.481,VALID,0,VALID,93.5391,VALID,0,VALID,23.1549,VALID,233,VALID,0.451953,
2011-01-26, 00:58:04,VALID,999.477,VALID,0,VALID,93.5468,VALID,0.112286,VALID,23.1354,VALID,235,VALID,0.499609,
2011-01-26, 00:59:04,VALID,999.493,VALID,0,VALID,93.5391,VALID,0,VALID,23.1159,VALID,237,VALID,0.326953,
2011-01-26, 01:00:04,VALID,999.478,VALID,0,VALID,93.562,VALID,0,VALID,23.0964,VALID,237,VALID,0.401953,
2011-01-26, 01:01:04,VALID,999.48,VALID,0,VALID,93.5544,VALID,0,VALID,23.0769,VALID,237,VALID,0.458203,
2011-01-26, 01:02:04,VALID,999.452,VALID,0,VALID,93.5468,VALID,0,VALID,23.0769,VALID,237,VALID,0.495313,
2011-01-26, 01:03:04,VALID,999.453,VALID,0,VALID,93.5468,VALID,0,VALID,23.0573,VALID,237,VALID,0.125,
2011-01-26, 01:04:04,VALID,999.454,VALID,0,VALID,93.5468,VALID,0,VALID,23.0378,VALID,237,VALID,0.228125,
2011-01-26, 01:05:04,VALID,999.452,VALID,0,VALID,93.5544,VALID,0,VALID,23.0183,VALID,237,VALID,0.385156,
2011-01-26, 01:06:04,VALID,999.439,VALID,0,VALID,93.562,VALID,0,VALID,22.9988,VALID,237,VALID,0.363672,
2011-01-26, 01:07:04,VALID,999.415,VALID,0,VALID,93.562,VALID,0,VALID,22.9988,VALID,237,VALID,0.107422,
2011-01-26, 01:08:04,VALID,999.341,VALID,0,VALID,93.5544,VALID,0,VALID,22.9988,VALID,237,VALID,0,
2011-01-26, 01:09:04,VALID,999.349,VALID,0,VALID,93.562,VALID,0,VALID,22.9988,VALID,237,VALID,0,
2011-01-26, 01:10:04,VALID,999.36,VALID,0,VALID,93.562,VALID,0,VALID,22.9988,VALID,237,VALID,0.205859,
2011-01-26, 01:11:04,VALID,999.351,VALID,0,VALID,93.5544,VALID,0,VALID,22.9988,VALID,237,VALID,0,
2011-01-26, 01:12:04,VALID,999.325,VALID,0,VALID,93.5468,VALID,0,VALID,22.9988,VALID,237,VALID,0,
2011-01-26, 01:13:04,VALID,999.291,VALID,0,VALID,93.5544,VALID,0,VALID,22.9988,VALID,237,VALID,0,
2011-01-26, 01:14:04,VALID,999.284,VALID,0,VALID,93.562,VALID,0,VALID,22.9988,VALID,237,VALID,0.222656,
2011-01-26, 01:15:04,VALID,999.279,VALID,0,VALID,93.5468,VALID,0,VALID,22.9776,VALID,165,VALID,0.946484,
2011-01-26, 01:16:04,VALID,999.279,VALID,0,VALID,93.5468,VALID,0,VALID,23.0769,VALID,157,VALID,1.16055,
2011-01-26, 01:17:04,VALID,999.324,VALID,0,VALID,93.5391,VALID,0,VALID,23.1549,VALID,158,VALID,1.55625,
2011-01-26, 01:18:04,VALID,999.34,VALID,0,VALID,93.5163,VALID,0,VALID,23.1939,VALID,160,VALID,1.38555,
2011-01-26, 01:19:04,VALID,999.297,VALID,0,VALID,93.5086,VALID,0,VALID,23.2329,VALID,168,VALID,1.23555,
2011-01-26, 01:20:04,VALID,999.249,VALID,0,VALID,93.5163,VALID,0,VALID,23.2524,VALID,175,VALID,1.50703,
2011-01-26, 01:21:04,VALID,999.199,VALID,0,VALID,93.501,VALID,0,VALID,23.2897,VALID,188,VALID,1.59453,
2011-01-26, 01:22:04,VALID,999.154,VALID,0,VALID,93.4857,VALID,0,VALID,23.3092,VALID,170,VALID,1.30742,
2011-01-26, 01:23:04,VALID,999.148,VALID,0,VALID,93.4934,VALID,0,VALID,23.389,VALID,192,VALID,1.47461,
2011-01-26, 01:24:04,VALID,999.108,VALID,0,VALID,93.501,VALID,0,VALID,23.4085,VALID,201,VALID,1.04961,
2011-01-26, 01:25:04,VALID,999.082,VALID,0,VALID,93.4781,VALID,0,VALID,23.4085,VALID,217,VALID,0.988672,
2011-01-26, 01:26:04,VALID,999.045,VALID,0,VALID,93.501,VALID,0,VALID,23.389,VALID,212,VALID,0.386719,
2011-01-26, 01:27:04,VALID,999.046,VALID,0,VALID,93.501,VALID,0,VALID,23.389,VALID,212,VALID,0.303125,
2011-01-26, 01:28:04,VALID,999.028,VALID,0,VALID,93.4781,VALID,0,VALID,23.4103,VALID,212,VALID,0.222656,
2011-01-26, 01:29:04,VALID,999.013,VALID,0,VALID,93.5086,VALID,0,VALID,23.35,VALID,212,VALID,0.304297,
2011-01-26, 01:30:04,VALID,999.042,VALID,0,VALID,93.5163,VALID,0.112286,VALID,23.2915,VALID,212,VALID,0.253516,
2011-01-26, 01:31:04,VALID,999.08,VALID,0,VALID,93.5163,VALID,0,VALID,23.2329,VALID,212,VALID,0.0113281,
2011-01-26, 01:32:04,VALID,999.068,VALID,0,VALID,93.5163,VALID,0,VALID,23.1939,VALID,212,VALID,0.347266,
2011-01-26, 01:33:04,VALID,999.1,VALID,0,VALID,93.5391,VALID,0,VALID,23.1531,VALID,212,VALID,0.433203,
2011-01-26, 01:34:04,VALID,999.11,VALID,0,VALID,93.5315,VALID,0,VALID,23.1549,VALID,212,VALID,0.397656,
2011-01-26, 01:35:04,VALID,999.103,VALID,0,VALID,93.5391,VALID,0,VALID,23.1549,VALID,212,VALID,0.420312,
2011-01-26, 01:36:04,VALID,999.099,VALID,0,VALID,93.5391,VALID,0,VALID,23.1549,VALID,212,VALID,0.350781,
2011-01-26, 01:37:04,VALID,999.092,VALID,0,VALID,93.5468,VALID,0,VALID,23.1549,VALID,212,VALID,0.417969,
2011-01-26, 01:38:04,VALID,999.121,VALID,0,VALID,93.5239,VALID,0,VALID,23.1744,VALID,212,VALID,0.355469,
2011-01-26, 01:39:04,VALID,999.135,VALID,0,VALID,93.5468,VALID,0,VALID,23.2134,VALID,210,VALID,0.478906,
2011-01-26, 01:40:04,VALID,999.068,VALID,0.5,VALID,93.5315,VALID,0,VALID,23.2524,VALID,172,VALID,0.736328,
2011-01-26, 01:41:04,VALID,999.001,VALID,0,VALID,93.501,VALID,0,VALID,23.35,VALID,171,VALID,1.73789,
2011-01-26, 01:42:04,VALID,998.983,VALID,0.5,VALID,93.4857,VALID,0,VALID,23.3872,VALID,176,VALID,2.02578,
2011-01-26, 01:43:04,VALID,998.995,VALID,0,VALID,93.4934,VALID,0,VALID,23.428,VALID,175,VALID,1.99375,
2011-01-26, 01:44:04,VALID,998.956,VALID,0,VALID,93.501,VALID,0,VALID,23.4475,VALID,184,VALID,1.74609,
2011-01-26, 01:45:04,VALID,998.984,VALID,0,VALID,93.501,VALID,0.112286,VALID,23.4458,VALID,180,VALID,1.57227,
2011-01-26, 01:46:04,VALID,998.971,VALID,0,VALID,93.4934,VALID,0,VALID,23.4866,VALID,184,VALID,1.08047,
2011-01-26, 01:47:04,VALID,998.969,VALID,0,VALID,93.4781,VALID,0,VALID,23.5256,VALID,177,VALID,1.65352,
2011-01-26, 01:48:04,VALID,998.923,VALID,0,VALID,93.4781,VALID,0,VALID,23.5646,VALID,196,VALID,1.46367,
2011-01-26, 01:49:04,VALID,998.917,VALID,0,VALID,93.4781,VALID,0,VALID,23.5646,VALID,217,VALID,1.33398,
2011-01-26, 01:50:04,VALID,998.925,VALID,0,VALID,93.4628,VALID,0.112286,VALID,23.5841,VALID,250,VALID,1.00859,
2011-01-26, 01:51:04,VALID,998.932,VALID,0,VALID,93.4934,VALID,0,VALID,23.5646,VALID,277,VALID,0.873438,
2011-01-26, 01:52:04,VALID,998.947,VALID,0,VALID,93.4705,VALID,0,VALID,23.5238,VALID,283,VALID,0.419531,
2011-01-26, 01:53:04,VALID,998.939,VALID,0,VALID,93.4934,VALID,0,VALID,23.5256,VALID,272,VALID,0.535547,
2011-01-26, 01:54:04,VALID,998.947,VALID,0,VALID,93.4857,VALID,0,VALID,23.4848,VALID,251,VALID,0.503125,
2011-01-26, 01:55:04,VALID,998.97,VALID,0,VALID,93.501,VALID,0.112286,VALID,23.4653,VALID,253,VALID,0.507813,
2011-01-26, 01:56:04,VALID,998.964,VALID,0,VALID,93.501,VALID,0,VALID,23.428,VALID,308,VALID,0.752344,
2011-01-26, 01:57:04,VALID,998.958,VALID,0,VALID,93.501,VALID,0,VALID,23.3695,VALID,308,VALID,0.899609,
2011-01-26, 01:58:04,VALID,998.935,VALID,0,VALID,93.5086,VALID,0,VALID,23.3305,VALID,288,VALID,0.873438,
2011-01-26, 01:59:04,VALID,998.967,VALID,0,VALID,93.5163,VALID,0,VALID,23.311,VALID,274,VALID,0.633594,
2011-01-26, 02:00:04,VALID,998.937,VALID,0,VALID,93.5315,VALID,0,VALID,23.311,VALID,272,VALID,0.433984,
2011-01-26, 02:01:04,VALID,998.924,VALID,0,VALID,93.5086,VALID,0,VALID,23.2719,VALID,272,VALID,0.813672,
2011-01-26, 02:02:04,VALID,998.913,VALID,0,VALID,93.5468,VALID,0,VALID,23.2329,VALID,280,VALID,0.760938,
2011-01-26, 02:03:04,VALID,998.897,VALID,0,VALID,93.5239,VALID,0,VALID,23.1939,VALID,286,VALID,0.735547,
2011-01-26, 02:04:04,VALID,998.883,VALID,0,VALID,93.5697,VALID,0,VALID,23.1159,VALID,304,VALID,1.00898,
2011-01-26, 02:05:04,VALID,998.892,VALID,0,VALID,93.562,VALID,0,VALID,23.0573,VALID,304,VALID,0.55,
2011-01-26, 02:06:04,VALID,998.896,VALID,0,VALID,93.5926,VALID,0,VALID,22.9988,VALID,301,VALID,0.700781,
2011-01-26, 02:07:04,VALID,998.929,VALID,0,VALID,93.5773,VALID,0,VALID,22.9793,VALID,293,VALID,0.217969,
2011-01-26, 02:08:04,VALID,998.944,VALID,0,VALID,93.5773,VALID,0,VALID,22.9793,VALID,293,VALID,0,
2011-01-26, 02:09:04,VALID,998.962,VALID,0,VALID,93.5773,VALID,0,VALID,22.9598,VALID,293,VALID,0,
2011-01-26, 02:10:04,VALID,998.929,VALID,0,VALID,93.5849,VALID,0,VALID,22.9598,VALID,293,VALID,0,
2011-01-26, 02:11:04,VALID,998.898,VALID,0,VALID,93.5697,VALID,0,VALID,22.9403,VALID,293,VALID,0,
2011-01-26, 02:12:04,VALID,998.848,VALID,0,VALID,93.6002,VALID,0,VALID,22.9013,VALID,293,VALID,0.951172,
2011-01-26, 02:13:04,VALID,998.871,VALID,0,VALID,93.5926,VALID,0,VALID,22.8818,VALID,295,VALID,0.683203,
2011-01-26, 02:14:04,VALID,998.859,VALID,0,VALID,93.6078,VALID,0,VALID,22.8818,VALID,295,VALID,0.320703,
2011-01-26, 02:15:04,VALID,998.887,VALID,0,VALID,93.5849,VALID,0,VALID,22.8818,VALID,295,VALID,0.211328,
2011-01-26, 02:16:04,VALID,998.878,VALID,0,VALID,93.6002,VALID,0,VALID,22.8605,VALID,295,VALID,0.218359,
2011-01-26, 02:17:04,VALID,998.83,VALID,0,VALID,93.5849,VALID,0,VALID,22.8818,VALID,295,VALID,0.436719,
2011-01-26, 02:18:05,VALID,998.825,VALID,0,VALID,93.6078,VALID,0,VALID,22.8818,VALID,349,VALID,0.976953,
2011-01-26, 02:19:05,VALID,998.797,VALID,0,VALID,93.5926,VALID,0,VALID,22.8818,VALID,358,VALID,0.951563,
2011-01-26, 02:20:05,VALID,998.789,VALID,0,VALID,93.5849,VALID,0,VALID,22.9013,VALID,349,VALID,0.746484,
2011-01-26, 02:21:05,VALID,998.795,VALID,0,VALID,93.5849,VALID,0,VALID,22.9208,VALID,339,VALID,0.772656,
2011-01-26, 02:22:05,VALID,998.75,VALID,0.5,VALID,93.5849,VALID,0,VALID,22.9598,VALID,339,VALID,0.488672,
2011-01-26, 02:23:05,VALID,998.74,VALID,0,VALID,93.5926,VALID,0,VALID,22.9598,VALID,339,VALID,0.0855469,
2011-01-26, 02:24:05,VALID,998.701,VALID,0,VALID,93.5773,VALID,0,VALID,22.9598,VALID,135,VALID,0.940625,
2011-01-26, 02:25:05,VALID,998.666,VALID,0,VALID,93.5849,VALID,0,VALID,22.9403,VALID,149,VALID,0.867188,
2011-01-26, 02:26:05,VALID,998.658,VALID,0,VALID,93.6002,VALID,0,VALID,22.9581,VALID,154,VALID,0.910547,
2011-01-26, 02:27:05,VALID,998.7,VALID,0,VALID,93.5849,VALID,0,VALID,22.9988,VALID,115,VALID,1.2625,
2011-01-26, 02:28:05,VALID,998.687,VALID,0,VALID,93.5697,VALID,0,VALID,23.0183,VALID,120,VALID,1.00234,
2011-01-26, 02:29:05,VALID,998.701,VALID,0,VALID,93.5544,VALID,0,VALID,23.0378,VALID,131,VALID,1.31055,
2011-01-26, 02:30:05,VALID,998.699,VALID,0,VALID,93.5544,VALID,0,VALID,23.0573,VALID,169,VALID,1.32734,
2011-01-26, 02:31:05,VALID,998.738,VALID,0,VALID,93.5544,VALID,0,VALID,23.0769,VALID,151,VALID,0.797266,
2011-01-26, 02:32:05,VALID,998.727,VALID,0,VALID,93.5544,VALID,0,VALID,23.0964,VALID,127,VALID,1.04023,
2011-01-26, 02:33:05,VALID,998.723,VALID,0,VALID,93.5544,VALID,0,VALID,23.1354,VALID,141,VALID,1.21484,
2011-01-26, 02:34:05,VALID,998.662,VALID,0.5,VALID,93.562,VALID,0,VALID,23.1549,VALID,140,VALID,1.36016,
2011-01-26, 02:35:05,VALID,998.586,VALID,0,VALID,93.5391,VALID,0,VALID,23.1549,VALID,172,VALID,1.42539,
2011-01-26, 02:36:05,VALID,998.572,VALID,0.5,VALID,93.5315,VALID,0,VALID,23.2134,VALID,181,VALID,1.65195,
2011-01-26, 02:37:05,VALID,998.625,VALID,0,VALID,93.5391,VALID,0,VALID,23.2524,VALID,172,VALID,1.51094,
2011-01-26, 02:38:05,VALID,998.616,VALID,0,VALID,93.5391,VALID,0,VALID,23.2719,VALID,157,VALID,0.477734,
2011-01-26, 02:39:05,VALID,998.591,VALID,0,VALID,93.5239,VALID,0,VALID,23.2702,VALID,157,VALID,0.746094,
2011-01-26, 02:40:05,VALID,998.591,VALID,0,VALID,93.5391,VALID,0,VALID,23.3287,VALID,181,VALID,0.625391,
2011-01-26, 02:41:05,VALID,998.567,VALID,0,VALID,93.5163,VALID,0,VALID,23.3695,VALID,227,VALID,0.385938,
2011-01-26, 02:42:05,VALID,998.572,VALID,0,VALID,93.5239,VALID,0,VALID,23.3305,VALID,291,VALID,0.430859,
2011-01-26, 02:43:05,VALID,998.558,VALID,0,VALID,93.5391,VALID,0,VALID,23.2719,VALID,291,VALID,0.773438,
2011-01-26, 02:44:05,VALID,998.577,VALID,0,VALID,93.5468,VALID,0,VALID,23.2329,VALID,291,VALID,0.60625,
2011-01-26, 02:45:05,VALID,998.601,VALID,0,VALID,93.5391,VALID,0,VALID,23.2329,VALID,291,VALID,0.748828,
2011-01-26, 02:46:05,VALID,998.62,VALID,0,VALID,93.5391,VALID,0,VALID,23.1939,VALID,291,VALID,0.592188,
2011-01-26, 02:47:05,VALID,998.623,VALID,0,VALID,93.5468,VALID,0,VALID,23.1939,VALID,291,VALID,0.503516,
2011-01-26, 02:48:05,VALID,998.622,VALID,0,VALID,93.5315,VALID,0,VALID,23.1744,VALID,291,VALID,0.574609,
2011-01-26, 02:49:05,VALID,998.575,VALID,0,VALID,93.562,VALID,0,VALID,23.1939,VALID,291,VALID,0.499219,
2011-01-26, 02:50:05,VALID,998.591,VALID,0,VALID,93.562,VALID,0,VALID,23.1939,VALID,291,VALID,0.298828,
2011-01-26, 02:51:05,VALID,998.547,VALID,0,VALID,93.5468,VALID,0,VALID,23.1921,VALID,291,VALID,0.508594,
2011-01-26, 02:52:05,VALID,998.556,VALID,0,VALID,93.5468,VALID,0,VALID,23.2329,VALID,291,VALID,0.569141,
2011-01-26, 02:53:05,VALID,998.533,VALID,0,VALID,93.5315,VALID,0,VALID,23.2134,VALID,280,VALID,0.44375,
2011-01-26, 02:54:05,VALID,998.505,VALID,0,VALID,93.5544,VALID,0,VALID,23.2329,VALID,250,VALID,0.886328,
2011-01-26, 02:55:05,VALID,998.475,VALID,0,VALID,93.5544,VALID,0,VALID,23.2329,VALID,250,VALID,0.679297,
2011-01-26, 02:56:05,VALID,998.423,VALID,0,VALID,93.5544,VALID,0,VALID,23.2524,VALID,250,VALID,0.694531,
2011-01-26, 02:57:05,VALID,998.436,VALID,0,VALID,93.5468,VALID,0,VALID,23.2507,VALID,250,VALID,0.557031,
2011-01-26, 02:58:05,VALID,998.438,VALID,0,VALID,93.5468,VALID,0,VALID,23.2312,VALID,250,VALID,0.482031,
2011-01-26, 02:59:05,VALID,998.404,VALID,0,VALID,93.5391,VALID,0,VALID,23.2507,VALID,250,VALID,0.529297,
2011-01-26, 03:00:05,VALID,998.43,VALID,0,VALID,93.5544,VALID,0,VALID,23.2915,VALID,250,VALID,0.0253906,
2011-01-26, 03:01:05,VALID,998.423,VALID,0,VALID,93.5315,VALID,0.112286,VALID,23.2702,VALID,244,VALID,0.210938,
2011-01-26, 03:02:05,VALID,998.431,VALID,0,VALID,93.5315,VALID,0,VALID,23.2897,VALID,244,VALID,0.245703,
2011-01-26, 03:03:05,VALID,998.428,VALID,0,VALID,93.5391,VALID,0.112286,VALID,23.2702,VALID,244,VALID,0.00195313,
2011-01-26, 03:04:05,VALID,998.452,VALID,0,VALID,93.5544,VALID,0,VALID,23.2719,VALID,244,VALID,0,
2011-01-26, 03:05:05,VALID,998.458,VALID,0,VALID,93.5468,VALID,0,VALID,23.2312,VALID,244,VALID,0,
2011-01-26, 03:06:05,VALID,998.427,VALID,0,VALID,93.5468,VALID,0,VALID,23.2329,VALID,244,VALID,0,
2011-01-26, 03:07:05,VALID,998.39,VALID,0,VALID,93.5391,VALID,0.112286,VALID,23.1921,VALID,244,VALID,0,
2011-01-26, 03:08:05,VALID,998.353,VALID,0,VALID,93.5468,VALID,0,VALID,23.1744,VALID,244,VALID,0,
2011-01-26, 03:09:05,VALID,998.323,VALID,0,VALID,93.5697,VALID,0,VALID,23.1549,VALID,244,VALID,0.197266,
2011-01-26, 03:10:05,VALID,998.3,VALID,0,VALID,93.5773,VALID,0,VALID,23.1354,VALID,244,VALID,0.571094,
2011-01-26, 03:11:05,VALID,998.292,VALID,0,VALID,93.562,VALID,0.112286,VALID,23.1141,VALID,304,VALID,0.809375,
2011-01-26, 03:12:05,VALID,998.295,VALID,0,VALID,93.562,VALID,0,VALID,23.1354,VALID,304,VALID,0.732813,
2011-01-26, 03:13:05,VALID,998.303,VALID,0,VALID,93.5391,VALID,0,VALID,23.1141,VALID,304,VALID,0.562891,
2011-01-26, 03:14:05,VALID,998.334,VALID,0,VALID,93.5773,VALID,0,VALID,23.1354,VALID,304,VALID,0.552734,
2011-01-26, 03:15:05,VALID,998.35,VALID,0,VALID,93.562,VALID,0,VALID,23.1336,VALID,304,VALID,0.507031,
2011-01-26, 03:16:05,VALID,998.434,VALID,0,VALID,93.5544,VALID,0,VALID,23.1531,VALID,304,VALID,0.6375,
2011-01-26, 03:17:05,VALID,998.477,VALID,0,VALID,93.562,VALID,0.112286,VALID,23.1336,VALID,304,VALID,0.694531,
2011-01-26, 03:18:05,VALID,998.572,VALID,0,VALID,93.5773,VALID,0,VALID,23.0964,VALID,358,VALID,1.24336,
2011-01-26, 03:19:05,VALID,998.622,VALID,0,VALID,93.5926,VALID,0,VALID,23.0378,VALID,15,VALID,1.26016,
2011-01-26, 03:20:05,VALID,998.653,VALID,0,VALID,93.5849,VALID,0,VALID,23.0166,VALID,9,VALID,0.806641,
2011-01-26, 03:21:05,VALID,998.651,VALID,0,VALID,93.5773,VALID,0,VALID,23.0166,VALID,7,VALID,0.680078,
2011-01-26, 03:22:05,VALID,998.685,VALID,0,VALID,93.5926,VALID,0,VALID,23.0361,VALID,1,VALID,1.06094,
2011-01-26, 03:23:05,VALID,998.74,VALID,0,VALID,93.5849,VALID,0,VALID,23.0361,VALID,18,VALID,1.56484,
2011-01-26, 03:24:05,VALID,998.77,VALID,0,VALID,93.6002,VALID,0,VALID,22.9581,VALID,352,VALID,1.52969,
2011-01-26, 03:25:05,VALID,998.796,VALID,0.5,VALID,93.5849,VALID,0,VALID,23.0183,VALID,2,VALID,2.10742,
2011-01-26, 03:26:05,VALID,998.818,VALID,0,VALID,93.6002,VALID,0,VALID,23.0183,VALID,360,VALID,1.51719,
2011-01-26, 03:27:05,VALID,998.862,VALID,0,VALID,93.5773,VALID,0,VALID,23.0183,VALID,345,VALID,1.7957,
2011-01-26, 03:28:05,VALID,998.88,VALID,0,VALID,93.5926,VALID,0,VALID,23.0378,VALID,337,VALID,0.956641,
2011-01-26, 03:29:05,VALID,998.952,VALID,0,VALID,93.5773,VALID,0,VALID,23.0769,VALID,336,VALID,0.517578,
2011-01-26, 03:30:05,VALID,998.951,VALID,0,VALID,93.5926,VALID,0.112286,VALID,23.0751,VALID,336,VALID,0.145703,
2011-01-26, 03:31:05,VALID,998.982,VALID,0,VALID,93.5697,VALID,0,VALID,23.0751,VALID,336,VALID,0.0234375,
2011-01-26, 03:32:05,VALID,998.964,VALID,0.5,VALID,93.562,VALID,0,VALID,23.0556,VALID,336,VALID,0.119922,
2011-01-26, 03:33:05,VALID,998.936,VALID,0,VALID,93.6002,VALID,0,VALID,23.0361,VALID,240,VALID,0.748047,
2011-01-26, 03:34:05,VALID,998.935,VALID,0.5,VALID,93.5849,VALID,0,VALID,23.0361,VALID,232,VALID,0.842969,
2011-01-26, 03:35:05,VALID,998.962,VALID,0,VALID,93.5849,VALID,0,VALID,23.0573,VALID,226,VALID,0.799609,
2011-01-26, 03:36:05,VALID,998.941,VALID,0,VALID,93.6002,VALID,0,VALID,23.0361,VALID,211,VALID,0.890234,
2011-01-26, 03:37:05,VALID,998.862,VALID,1,VALID,93.5773,VALID,0,VALID,23.0361,VALID,238,VALID,1.04453,
2011-01-26, 03:38:05,VALID,998.848,VALID,0,VALID,93.5926,VALID,0,VALID,23.0556,VALID,262,VALID,0.642187,
2011-01-26, 03:39:05,VALID,998.833,VALID,0,VALID,93.5849,VALID,0,VALID,23.0751,VALID,262,VALID,0.761719,
2011-01-26, 03:40:05,VALID,998.856,VALID,0.5,VALID,93.562,VALID,0,VALID,23.1159,VALID,249,VALID,1.0918,
2011-01-26, 03:41:05,VALID,998.859,VALID,0,VALID,93.5697,VALID,0,VALID,23.0946,VALID,249,VALID,0.386719,
2011-01-26, 03:42:05,VALID,998.896,VALID,0,VALID,93.5849,VALID,0,VALID,23.1159,VALID,249,VALID,0.00703125,
2011-01-26, 03:43:05,VALID,998.936,VALID,0,VALID,93.562,VALID,0,VALID,23.0946,VALID,249,VALID,0.36875,
2011-01-26, 03:44:05,VALID,999.016,VALID,0,VALID,93.5544,VALID,0,VALID,23.1159,VALID,249,VALID,0.0125,
2011-01-26, 03:45:05,VALID,999.051,VALID,0,VALID,93.5773,VALID,0,VALID,23.1336,VALID,195,VALID,0.727734,